Temp
24 23 23 23 23 22 22 22 22 22 22 22 22 21 21 21 21 21 21 21 21 21 21 21 20 20 20 20 20 20 20 20 20 20 19 19 19 20 20 20 20 20
24 23 23 23 22 22 22 22 22 22 22 21 21 21 21 21 21 21 21 21 21 21 21 20 20 20 20 20 20 20 20 20 20 20 19 19 20 20 20 20 20 20
23 23 23 22 22 22 22 22 22 22 22 22 22 21 21 21 21 21 21 21 21 21 21 21 20 20 20 20 20 20 20 20 20 20 20 20 20 20 20 20 20 20
23 23 23 23 23 23 22 22 22 22 22 22 22 22 21 21 21 21 21 21 21 21 21 21 21 21 21 21 20 20 20 20 20 20 20 20 20 20 20 20 20 19
23 23 23 23 23 23 22 22 22 22 22 22 22 22 21 21 21 21 21 21 21 21 21 21 21 21 21 21 20 20 20 20 20 20 20 20 19 19 19 19 19 19
23 23 23 22 22 22 22 22 22 22 22 22 22 22 22 21 21 21 21 21 21 21 21 21 21 21 21 20 20 20 20 20 20 20 20 20 20 19 19 19 19 19
23 23 23 22 22 22 22 22 22 22 22 22 22 22 22 22 21 21 21 21 21 21 21 21 21 20 20 20 20 20 20 20 20 20 20 20 20 19 19 19 19 19
23 23 22 22 22 22 22 22 22 22 22 22 22 22 22 22 22 22 21 21 21 21 21 20 20 20 20 20 20 20 20 20 20 20 20 20 20 19 19 19 19 19
23 23 23 23 22 22 22 22 22 23 23 23 23 23 23 22 22 22 22 21 21 21 21 21 20 20 20 20 20 20 20 20 20 20 19 19 19 19 19 19 19 18
23 23 23 23 23 23 23 23 23 24 24 23 23 23 23 23 22 22 22 22 21 21 21 21 20 20 20 20 20 20 20 20 20 20 19 19 19 19 19 19 19 18
23 23 23 23 23 23 23 23 24 24 24 24 24 23 23 23 23 23 23 22 22 22 22 21 21 20 20 20 20 19 19 20 20 19 19 19 19 19 19 19 19 18
23 23 23 23 23 23 23 23 23 23 24 24 23 23 23 23 23 23 23 23 22 22 22 21 21 20 20 20 20 19 19 19 19 19 19 19 19 19 19 19 19 18
24 23 23 24 24 23 23 23 23 23 23 23 22 22 22 22 22 22 22 22 22 22 22 21 21 20 20 20 20 19 19 19 19 18 19 19 19 19 19 19 19 19
24 24 24 24 24 23 23 23 23 23 22 22 22 21 21 22 22 22 22 22 22 22 21 21 21 20 20 20 20 19 19 19 19 19 19 19 19 19 19 19 19 18
24 24 24 24 23 23 23 23 23 22 22 22 21 21 21 21 22 22 22 21 21 21 21 21 20 19 19 19 19 20 19 19 19 19 19 19 19 19 19 19 19 18
24 24 24 24 23 23 23 23 22 22 22 22 21 21 21 21 21 21 21 21 21 21 21 21 20 19 19 19 19 20 19 19 19 19 19 19 18 19 19 19 19 18
24 24 23 23 23 23 23 23 22 22 22 22 21 21 21 21 21 21 22 21 21 21 21 21 20 20 20 19 19 19 19 19 19 19 19 18 18 18 18 18 19 18
24 23 23 23 23 23 23 22 22 22 22 22 22 21 21 21 21 22 22 21 21 21 21 20 20 20 20 20 19 19 19 19 19 19 19 18 18 18 18 18 18 18
24 24 23 23 23 23 22 22 22 22 22 22 22 22 22 22 22 22 22 21 21 21 21 20 20 20 20 20 19 19 19 19 19 19 18 18 18 18 18 18 18 17
24 24 23 23 23 23 23 22 22 22 22 22 22 22 22 22 22 22 21 21 21 21 20 20 20 20 20 20 19 19 19 19 18 18 18 17 17 17 17 17 17 17
24 24 23 23 23 23 23 22 22 22 22 22 22 22 22 22 22 22 21 21 21 20 20 20 20 20 20 19 19 19 19 19 18 18 17 17 17 17 17 17 17 17
24 24 24 23 23 23 23 23 22 22 22 22 22 22 22 22 22 21 21 21 21 21 20 20 20 20 20 19 19 19 18 18 18 18 17 17 17 17 17 17 17 17
24 24 24 23 23 23 23 23 23 23 23 22 22 22 22 22 22 22 21 21 21 21 21 20 20 20 20 19 19 19 18 18 18 18 17 17 17 17 17 17 17 18
24 24 24 24 23 23 23 23 23 23 23 23 22 22 22 22 22 22 22 21 21 21 21 21 20 20 20 19 19 18 18 18 18 17 16 17 17 17 17 17 18 18
24 24 24 24 24 23 23 23 23 23 23 23 22 22 22 22 22 22 21 21 21 21 21 21 20 20 20 19 18 18 17 17 17 16 16 16 17 17 17 17 17 18
25 24 24 24 24 24 23 23 23 23 23 23 23 22 22 22 21 21 21 22 22 21 21 21 20 20 19 19 18 18 17 17 17 16 16 16 16 16 16 17 18 18
Height
812 813 813 813 814 814 814 815 815 816 816 816 816 816 815 815 815 815 814 814 814 813 813 813 812 812 812 811 811 810 810 809 809 809 808 808 808 807 806 805 805 804
811 811 812 812 813 813 813 814 814 814 814 815 814 814 814 814 814 814 814 813 813 812 812 812 811 811 811 810 810 809 809 808 808 808 807 807 807 806 805 804 803 803
810 811 811 811 811 812 812 812 813 813 813 813 813 813 813 813 813 813 813 812 812 812 811 810 810 810 809 809 809 808 808 807 807 807 806 806 805 805 804 803 802 801
809 810 810 811 811 811 811 811 812 812 812 812 812 812 812 812 812 812 812 811 811 810 810 809 809 808 808 808 807 807 806 806 806 806 805 805 804 803 803 802 801 800
808 809 809 810 810 810 810 811 811 811 811 811 811 811 811 811 811 811 811 810 810 809 809 808 808 807 807 806 806 805 805 805 804 804 804 803 803 802 802 801 800 799
807 808 808 809 809 809 810 810 810 810 810 810 810 810 810 810 810 809 809 809 809 808 808 807 807 806 806 805 804 804 803 803 803 802 802 802 801 801 800 800 798 798
806 807 808 808 808 809 809 809 809 809 808 808 807 808 808 808 808 808 808 808 807 807 806 806 806 805 805 804 803 802 802 801 801 800 800 800 799 799 799 798 797 796
805 806 807 807 807 808 808 808 808 807 806 806 805 806 806 806 806 806 806 806 806 805 805 805 804 804 803 803 802 801 801 800 799 799 798 798 798 797 797 796 795 794
804 805 806 806 806 807 807 807 806 805 804 804 804 804 804 804 804 804 804 804 803 803 803 803 803 802 802 801 801 800 799 799 798 797 796 796 796 795 795 794 794 793
802 804 805 805 805 805 805 805 805 803 803 802 803 803 802 802 802 801 801 801 801 801 801 801 801 801 800 800 799 799 798 797 797 795 795 794 794 793 793 792 792 791
800 802 803 803 803 804 804 803 803 802 801 801 801 801 801 800 800 800 800 799 799 799 799 799 799 799 798 798 798 797 796 796 795 795 794 793 792 792 791 791 790 789
798 799 801 801 802 802 802 802 802 801 801 800 800 800 800 799 799 798 798 798 797 797 797 797 797 796 796 795 795 795 794 793 793 793 793 792 791 790 790 789 788 787
796 797 798 799 800 800 801 801 800 800 800 799 798 798 798 798 797 797 796 796 796 795 795 795 795 794 793 793 793 792 792 791 791 791 791 791 790 789 789 788 786 786
793 795 796 797 798 798 799 799 799 799 798 798 798 797 797 796 796 795 794 794 794 793 793 793 792 791 791 791 791 790 790 790 790 790 789 789 789 788 787 786 785 784
791 793 794 795 796 796 797 797 797 797 797 797 796 796 796 795 794 793 792 792 791 791 791 791 790 790 790 790 789 789 788 788 788 788 788 787 786 785 785 784 783 782
790 791 792 793 793 794 795 794 795 795 795 795 794 794 794 793 792 791 790 790 789 789 789 788 787 787 787 787 787 787 787 787 787 786 786 785 784 783 782 781 781 780
787 788 789 790 791 792 792 792 792 792 792 792 792 791 791 790 790 789 788 788 787 787 787 786 784 785 785 785 785 785 785 785 784 784 783 782 781 781 780 779 778 778
785 786 787 788 788 789 789 789 790 790 790 790 789 789 789 788 788 787 786 786 785 784 784 783 782 782 782 782 782 782 782 782 782 781 780 780 779 778 777 776 776 775
782 783 784 785 785 786 787 787 787 787 787 787 787 787 786 786 786 785 784 784 783 782 781 780 780 780 780 780 779 779 780 780 779 779 778 777 776 775 775 774 773 773
779 780 781 782 782 783 784 784 785 785 785 785 785 784 784 783 783 782 782 781 780 779 779 778 778 777 777 777 777 777 777 777 777 776 775 775 774 773 773 771 771 770
775 776 778 778 779 781 781 782 782 782 782 783 782 782 782 781 781 780 780 779 778 777 777 776 775 775 775 775 774 774 774 774 774 773 772 772 771 771 771 770 768 767
771 773 774 775 776 778 779 780 780 780 780 780 780 780 780 779 779 778 777 777 776 776 775 774 774 773 773 773 772 772 772 771 770 770 769 769 768 769 768 767 766 764
769 770 771 773 774 775 776 777 778 778 778 778 778 778 777 777 776 776 775 775 774 774 773 772 772 772 772 771 770 770 769 769 768 767 766 766 766 766 766 764 764 762
767 768 769 770 771 773 774 775 775 776 776 776 776 775 775 774 774 773 773 772 771 771 770 770 770 770 770 769 769 768 767 766 766 765 765 764 764 764 763 762 761 760
764 765 767 768 769 770 771 772 772 773 773 773 773 773 772 772 771 770 769 768 768 768 767 767 768 768 768 768 768 767 765 764 764 764 763 762 762 761 760 759 758 757
761 763 764 765 766 767 768 769 770 770 770 771 771 771 771 770 769 768 767 766 765 765 765 765 766 767 767 767 766 766 764 763 763 762 762 761 760 759 758 757 756 755
Wind_Speed
6 6 5 5 5 5 5 5 6 6 7 8 9 9 9 9 9 9 9 9 9 9 9 9 9 9 9 8 9 10 11 11 12 12 12 12 13 14 14 15 15 15
7 7 6 5 5 6 6 6 6 6 7 8 9 10 10 10 9 9 9 10 10 10 10 9 10 10 9 10 10 11 11 11 11 12 11 11 12 13 14 14 15 15
8 7 7 7 7 7 6 6 6 7 8 8 9 10 10 9 9 10 10 11 11 11 11 10 10 10 10 10 11 11 11 11 11 11 10 11 12 13 14 14 14 14
9 9 8 8 7 7 6 6 7 7 8 8 8 9 9 10 10 11 11 12 12 12 12 12 12 11 11 11 11 11 11 10 10 9 10 11 12 12 13 13 13 14
10 10 9 8 8 7 7 7 7 7 8 8 9 9 9 10 10 11 12 12 12 12 12 13 12 12 12 12 12 12 11 10 9 9 10 11 11 11 11 12 12 14
10 10 9 9 8 8 8 8 7 7 8 9 9 10 10 10 11 11 12 12 12 13 13 13 13 12 12 11 12 11 11 10 10 9 10 11 11 10 11 11 12 14
10 10 9 9 9 9 9 8 8 9 10 10 11 11 10 11 12 12 12 13 13 13 13 14 14 14 13 12 11 11 11 11 10 10 11 12 12 11 11 11 12 13
10 10 10 10 10 9 9 9 10 12 12 12 12 11 10 11 11 12 12 13 14 14 15 15 15 15 14 13 12 12 11 11 10 10 11 12 12 12 11 11 11 13
10 11 10 10 10 10 10 10 11 13 13 14 13 11 10 11 11 12 13 14 15 15 15 15 16 16 15 14 13 13 13 13 13 12 11 12 12 11 11 11 11 12
11 11 11 10 10 11 10 10 11 12 11 10 11 11 12 13 12 13 14 15 15 14 14 15 15 16 15 14 14 14 15 15 15 14 13 13 12 11 11 11 11 12
12 12 11 11 11 10 10 10 11 11 9 9 11 12 13 13 12 11 13 15 14 13 14 15 15 16 17 17 15 14 15 16 16 16 15 14 13 12 12 11 11 11
13 13 12 12 12 11 10 10 10 10 11 11 11 10 10 11 11 13 15 15 14 14 14 14 14 16 19 19 17 15 15 16 16 17 16 15 14 13 13 12 12 11
14 14 13 12 11 11 10 10 10 10 10 11 11 11 11 12 13 14 15 15 16 15 14 14 15 18 19 18 16 17 18 17 17 17 18 17 16 15 15 14 14 12
14 13 13 12 11 11 10 10 10 10 10 11 12 12 12 12 13 14 15 16 18 17 16 17 16 15 16 16 15 16 16 16 16 17 18 18 17 17 17 16 15 14
13 13 12 12 12 12 11 11 11 11 11 11 12 12 12 13 14 14 15 17 17 16 16 15 12 10 13 14 15 16 16 15 15 16 17 18 18 17 17 17 16 15
14 13 13 13 13 13 12 12 12 11 12 12 13 13 13 14 14 14 15 16 15 15 15 12 10 12 13 12 12 14 16 15 15 17 18 18 18 17 17 18 17 16
16 15 15 14 14 14 13 13 13 13 13 14 14 14 14 14 14 14 14 14 14 15 13 11 13 15 13 12 11 11 13 15 15 16 17 17 17 17 17 18 18 18
18 17 17 16 16 15 15 14 14 14 14 15 15 14 14 14 14 13 13 14 14 14 13 12 15 16 14 13 13 11 12 15 15 16 17 17 17 16 17 19 19 20
19 19 18 18 18 17 16 15 15 15 15 15 14 14 13 13 13 13 14 14 14 14 14 14 15 16 14 13 13 12 13 16 17 18 18 18 17 17 17 18 19 20
21 21 20 19 18 17 16 15 15 15 15 15 14 13 13 14 13 13 13 13 12 13 14 14 13 14 13 12 11 12 13 14 17 20 19 18 18 18 18 18 18 20
24 23 22 20 18 17 16 16 16 16 16 15 14 14 14 14 13 12 13 13 12 12 12 12 12 11 11 12 11 11 12 13 15 19 19 19 19 18 17 17 18 20
25 24 22 20 17 16 16 16 16 16 16 15 15 15 15 15 14 13 14 15 15 14 13 12 11 11 12 12 12 11 13 14 15 16 17 18 19 17 17 19 20 20
24 22 20 18 17 16 16 16 15 15 15 16 16 16 16 16 16 15 16 16 17 16 14 13 13 12 13 13 12 13 14 15 15 14 14 16 18 18 19 22 22 20
21 20 18 18 17 16 15 14 14 15 15 15 17 17 17 16 16 16 17 17 18 17 16 15 13 13 14 13 13 14 15 13 13 12 12 15 18 19 19 21 21 20
19 19 18 17 16 16 15 14 14 14 14 15 17 18 17 17 18 18 19 19 19 18 16 15 13 13 12 11 13 15 13 10 10 10 11 13 16 17 18 18 19 18
18 18 18 17 16 15 14 14 14 14 14 14 17 18 17 18 18 18 20 20 18 17 17 16 15 13 9 8 12 13 11 9 9 9 10 12 14 15 16 16 16 15
Wind_Direction
217 223 229 243 252 261 273 280 280 283 292 300 303 304 305 308 308 307 309 309 309 310 310 311 313 315 317 319 323 323 322 319 318 320 321 319 319 318 319 321 322 321
213 218 220 232 242 247 251 257 267 281 292 297 301 304 302 302 304 305 306 307 308 309 308 309 312 313 313 315 319 319 318 317 317 319 321 320 321 321 320 322 325 326
209 217 220 226 237 244 246 253 267 280 286 290 295 302 305 305 306 305 304 306 307 307 307 307 307 308 309 310 314 316 314 314 315 316 317 318 319 318 317 318 321 325
206 213 222 226 233 242 247 254 263 272 281 289 297 304 307 307 306 305 304 304 305 306 306 305 305 305 303 302 305 309 310 310 310 311 311 310 313 313 313 317 321 324
206 211 218 224 229 235 239 246 258 272 282 291 299 302 302 305 305 304 303 303 303 303 303 303 303 301 299 298 298 301 304 305 304 303 303 304 309 311 312 316 320 322
203 209 214 219 224 228 233 242 254 265 274 282 287 289 292 295 296 296 297 297 297 297 297 300 300 299 297 294 293 294 294 297 298 299 301 302 305 308 311 315 317 319
202 209 213 217 222 227 231 240 251 256 262 264 263 267 276 282 285 287 289 292 293 292 293 295 296 297 297 293 289 287 286 290 292 293 298 302 304 307 312 316 317 318
207 213 215 218 222 229 233 237 246 252 256 254 251 258 267 273 279 282 284 287 289 290 291 293 294 294 296 296 292 288 286 286 286 288 294 298 302 308 313 318 320 319
210 215 219 222 223 230 236 242 252 256 258 253 249 257 268 273 278 278 279 280 282 286 288 290 293 293 292 294 297 297 294 291 290 289 292 295 300 307 313 317 320 321
209 217 221 225 228 233 237 243 253 262 268 260 254 264 273 272 273 273 276 277 276 279 284 288 294 292 287 288 294 299 297 295 294 291 291 295 297 303 309 312 315 317
206 215 221 226 230 238 244 249 259 275 287 281 273 280 282 279 281 287 291 286 279 279 284 289 292 289 286 285 287 292 294 293 293 290 289 291 294 300 305 304 307 309
205 212 219 226 229 237 248 256 269 280 282 283 291 301 301 299 301 301 299 297 294 290 288 290 290 288 288 286 284 289 291 291 292 291 292 293 294 299 301 298 299 299
204 210 217 227 231 236 244 250 260 269 275 291 308 314 309 304 300 296 297 303 305 300 297 298 293 286 286 284 282 285 285 286 290 293 296 297 297 298 297 294 293 291
203 210 215 223 229 235 241 246 253 261 270 283 292 295 296 293 290 291 295 300 301 299 298 298 290 279 279 279 277 281 284 288 294 294 293 294 294 296 294 289 287 284
205 211 213 219 226 232 237 241 246 251 258 266 272 277 280 280 283 288 292 294 295 294 295 297 291 283 286 286 285 286 284 285 289 289 289 290 292 294 291 288 286 282
206 209 212 216 222 227 232 237 239 244 252 257 261 266 271 275 279 283 288 291 293 294 296 295 289 289 291 290 292 288 280 276 281 286 290 291 290 292 292 290 288 285
205 207 211 215 220 225 229 232 237 242 249 253 256 261 266 270 274 279 284 287 289 291 292 287 286 290 291 290 293 287 278 279 283 287 290 290 289 292 294 294 294 289
204 206 210 214 219 224 226 231 238 243 250 253 254 258 262 266 271 275 278 282 284 283 280 280 286 291 289 287 287 283 280 283 284 285 289 289 289 291 294 296 297 294
204 206 211 214 218 222 225 231 239 244 251 255 256 258 261 264 267 271 275 280 280 274 273 278 283 284 283 282 281 280 283 284 284 285 287 288 288 291 295 297 297 298
205 208 211 214 217 220 224 230 237 245 251 255 259 261 260 259 260 265 272 275 272 271 276 283 283 278 277 281 285 288 291 290 286 284 284 285 288 292 296 298 298 301
205 207 210 213 215 218 225 232 238 243 248 253 257 259 261 261 259 261 267 268 267 270 274 279 279 273 272 282 290 293 295 294 288 282 278 279 286 292 293 295 300 304
205 206 207 210 213 217 225 234 238 242 246 249 251 254 259 261 260 262 265 265 265 266 264 266 270 271 274 281 284 287 293 295 289 281 273 275 286 292 290 292 303 312
204 205 206 207 211 217 225 234 241 245 249 249 248 251 254 255 256 260 262 263 265 265 263 263 265 270 275 276 279 288 297 297 289 276 265 272 286 292 292 296 305 315
202 205 208 207 211 218 226 236 243 248 252 251 247 249 253 254 256 260 263 265 265 264 264 262 262 271 275 274 285 302 307 303 293 277 266 276 289 293 294 300 308 314
202 206 209 209 214 219 226 236 244 249 254 255 252 251 254 257 258 261 264 263 262 267 270 264 264 273 276 280 299 312 312 305 299 290 281 285 292 293 296 302 307 313
206 208 208 213 220 222 227 236 245 251 256 261 263 258 256 259 259 261 264 264 264 269 269 267 269 271 272 292 310 314 311 304 302 303 296 293 294 293 294 300 303 308